DW9907 Weather Reports


Display with metric or nautical units.
time (UTC)temp
F
wind
direction
speed
MPH
gust
MPH
rain 1hr
in
rain 24hr
in
rain mn
in
humidity
%
barometer
mb
20260505041544 65 185 12.0 22.0 0.00 0.00 0.00 50 1000.6
20260505040038 66 185 13.0 22.0 0.00 0.00 0.00 49 1000.6
20260505034533 66 185 11.0 25.0 0.00 0.00 0.00 49 1000.6
20260505033032 66 185 14.0 21.0 0.00 0.00 0.00 49 1000.6
20260505031540 66 185 12.0 16.0 0.00 0.00 0.00 48 1000.8
20260505030029 67 185 11.0 20.0 0.00 0.00 0.00 47 1000.9
20260505024530 67 185 12.0 18.0 0.00 0.00 0.00 46 1000.6
20260505023030 68 185 12.0 17.0 0.00 0.00 0.00 46 1000.6
20260505021534 69 185 10.0 17.0 0.00 0.00 0.00 44 1000.4
20260505020032 70 185 10.0 17.0 0.00 0.00 0.00 42 1000.2
20260505014544 71 185 13.0 23.0 0.00 0.00 0.00 40 1000.1
20260505013031 72 185 12.0 20.0 0.00 0.00 0.00 40 999.9
20260505011530 73 185 18.0 25.0 0.00 0.00 0.00 38 999.9
20260505010028 74 185 15.0 23.0 0.00 0.00 0.00 35 1000.1
20260505004537 76 185 15.0 24.0 0.00 0.00 0.00 33 999.8
20260505003029 78 185 16.0 22.0 0.00 0.00 0.00 32 1000.2
20260505001532 80 185 4.0 6.0 0.00 0.00 0.00 34 1000.4
20260505000038 81 185 4.0 6.0 0.00 0.00 0.00 33 1000.0
20260504234534 82 185 6.0 9.0 0.00 0.00 0.00 27 1000.0
20260504233033 83 185 2.0 8.0 0.00 0.00 0.00 27 1000.1
20260504231532 83 185 3.0 12.0 0.00 0.00 0.00 25 1000.3
20260504230030 84 185 8.0 19.0 0.00 0.00 0.00 22 1000.2
20260504224531 85 185 8.0 14.0 0.00 0.00 0.00 22 1000.2
20260504223052 86 185 9.0 12.0 0.00 0.00 0.00 22 1000.1
20260504221528 86 185 8.0 13.0 0.00 0.00 0.00 20 1000.2
20260504220032 87 185 5.0 13.0 0.00 0.00 0.00 20 1000.3
20260504214532 87 185 9.0 13.0 0.00 0.00 0.00 20 1000.3
20260504213045 87 185 8.0 15.0 0.00 0.00 0.00 21 1000.6
20260504211534 85 185 9.0 14.0 0.00 0.00 0.00 21 1000.8
20260504210033 85 185 7.0 15.0 0.00 0.00 0.00 21 1001.1
20260504204541 85 185 8.0 16.0 0.00 0.00 0.00 20 1001.2
20260504203028 86 185 8.0 14.0 0.00 0.00 0.00 21 1001.3
20260504201529 85 185 5.0 16.0 0.00 0.00 0.00 21 1001.5
20260504200034 86 185 2.0 13.0 0.00 0.00 0.00 20 1001.7
20260504194529 86 185 7.0 12.0 0.00 0.00 0.00 19 1001.8
20260504193032 86 185 3.0 11.0 0.00 0.00 0.00 19 1001.9
20260504191530 87 185 8.0 13.0 0.00 0.00 0.00 20 1001.9
20260504190029 87 185 1.0 10.0 0.00 0.00 0.00 18 1002.4
20260504184528 88 185 5.0 14.0 0.00 0.00 0.00 17 1002.5
20260504183030 89 185 2.0 6.0 0.00 0.00 0.00 17 1002.6
20260504181539 89 185 5.0 12.0 0.00 0.00 0.00 18 1003.0
20260504180032 90 185 4.0 14.0 0.00 0.00 0.00 18 1003.1
20260504174528 89 185 1.0 9.0 0.00 0.00 0.00 18 1003.2
20260504173032 88 185 6.0 10.0 0.00 0.00 0.00 18 1003.4
20260504171528 87 0 1.0 10.0 0.00 0.00 0.00 18 1003.4
20260504081528 59 185 10.0 13.0 0.00 0.00 0.00 44 1005.3
20260504044541 66 185 14.0 20.0 0.00 0.00 0.00 31 1006.5
20260504043030 67 185 14.0 20.0 0.00 0.00 0.00 30 1006.5